Flag for Kazakhstan Weather past 2 weeks in Astana, Kazakhstan

Now
3 °F

Sunny.


Feels Like: -10 °F
Forecast: 8 / 16 °F
Wind: 8 mph from South

Location: Astana

Current Time: Dec 20, 2014 at 10:52:36 AM

Latest Report: Dec 20, 2014 at 10:30 AM


Visibility: 10 mi

Pressure: 30.30 "Hg

Humidity: 78%

Dew point: -2 °F

Location of AstanaLocation

Historic Weather in Astana — Graph

°F

Astana temperature yesterday

Maximum temperature yesterday: 7 °F (at 2:00 PM)
Minimum temperature yesterday: -11 °F (at 9:00 AM)
Average temperature yesterday: -4 °F

Past Weeks' High & Low Weather Summary

 TemperatureHumidityPressure
High19 °F (Dec 12, 12:00 PM)93% (Dec 6, 10:30 PM)30.83 "Hg (Dec 6, 10:30 PM)
Low-20 °F (Dec 7, 8:30 PM)55% (Dec 10, 1:30 PM)29.86 "Hg (Dec 6, 7:30 PM)
Average5 °F81%30.49 "Hg
* Reported Dec 5 10:00 AM — Dec 20 10:00 AM, Astana, Weather by CustomWeather, © 2014

Note: Actual official high and low records may vary slightly from our data, if they occured in-between our weather recording intervals... More about our weather records

Advertising

Astana weather history for previous 24 hours

 ConditionsComfort  
Time TempWeatherWind HumidityBarometerVisibility
10:00 AM
Dec 20
1 °FClear.3 mph78%30.30 "Hg10 mi
9:30 AM1 °FClear.3 mph85%30.30 "Hg10 mi
9:00 AM0 °FClear.3 mph78%30.30 "Hg10 mi
8:30 AM-2 °FClear.6 mph84%30.30 "Hg10 mi
8:00 AM-2 °FClear.3 mph84%30.30 "Hg10 mi
7:30 AM1 °FClear.1 mph78%30.30 "Hg10 mi
7:00 AM1 °FClear.3 mph85%30.30 "Hg10 mi
6:30 AM0 °FPassing clouds.6 mph78%30.30 "HgN/A
6:00 AM-2 °FClear.3 mph84%30.30 "Hg10 mi
5:30 AM-6 °FClear.3 mph77%30.30 "Hg10 mi
5:00 AM-4 °FPassing clouds.3 mph77%30.30 "HgN/A
4:30 AM-2 °FPassing clouds.3 mph77%30.30 "HgN/A
4:00 AM-4 °FClear.1 mph77%30.33 "Hg10 mi
3:30 AM-2 °FClear.3 mph77%30.33 "Hg10 mi
3:00 AM-2 °FClear.8 mph77%30.33 "Hg10 mi
2:30 AM-4 °FPassing clouds.3 mph77%30.33 "HgN/A
2:00 AM-4 °FClear.3 mph77%30.33 "Hg10 mi
1:30 AM-6 °FClear.3 mph77%30.33 "Hg10 mi
1:00 AM-6 °FClear.6 mph77%30.36 "Hg10 mi
12:30 AM-6 °FClear.8 mph77%30.36 "Hg10 mi
12:00 AM-6 °FClear.6 mph77%30.36 "Hg10 mi
11:30 PM
Dec 19
-6 °FClear.6 mph77%30.36 "Hg10 mi
11:00 PM-4 °FClear.3 mph77%30.36 "Hg10 mi
10:30 PM-4 °FClear.6 mph77%30.39 "Hg10 mi
10:00 PM-4 °FClear.6 mph77%30.39 "Hg10 mi
9:30 PM-2 °FClear.6 mph77%30.39 "Hg10 mi
9:00 PM-4 °FPassing clouds.6 mph77%30.39 "HgN/A
8:30 PM-6 °FPassing clouds.6 mph77%30.39 "HgN/A
8:00 PM-6 °FClear.8 mph77%30.39 "Hg10 mi
7:30 PM-4 °FClear.6 mph77%30.39 "Hg10 mi
7:00 PM0 °FPassing clouds.6 mph78%30.39 "HgN/A
6:30 PM0 °FPassing clouds.6 mph78%30.39 "HgN/A
6:00 PM0 °FPassing clouds.6 mph78%30.39 "HgN/A
5:30 PM1 °FPassing clouds.3 mph78%30.39 "HgN/A
5:00 PM3 °FSunny.3 mph72%30.39 "Hg6 mi
4:30 PM5 °FSunny.3 mph72%30.39 "Hg4 mi
4:00 PM7 °FSunny.3 mph66%30.39 "Hg5 mi
3:30 PM5 °FPassing clouds.3 mph72%30.39 "HgN/A
3:00 PM7 °FSunny.3 mph66%30.39 "Hg10 mi
2:30 PM7 °FSunny.1 mph72%30.39 "Hg10 mi
2:00 PM7 °FSunny.No wind72%30.42 "Hg6 mi
1:00 PM0 °FSunny.1 mph78%30.42 "Hg10 mi
12:30 PM-2 °FSunny.1 mph77%30.42 "Hg5 mi
12:00 PM-4 °FSunny.1 mph77%30.42 "Hg4 mi
11:30 AM-6 °FScattered clouds.1 mph77%30.42 "Hg4 mi
11:00 AM-6 °FScattered clouds.3 mph77%30.42 "Hg4 mi
10:30 AM-8 °FScattered clouds.No wind77%30.42 "Hg4 mi
Weather by CustomWeather, © 2014

See weather overviewHow to use our weather pages